Regional Weather Roundup
Issued by NWS

Home | Current Version | Previous Version | Text Only | Print | Product List | Glossary On
Versions: 1 2 3 4 5 6 7 8 9 10 11 12 13 14 15 16 17 18 19 20 21 22 23 24 25 26 27 28 29 30 31 32 33 34 35 36 37 38 39 40 41 42 43 44 45 46 47 48 49 50
000
ASUS44 KJAN 261210
RWRMS

MISSISSIPPI HOURLY WEATHER ROUNDUP
NATIONAL WEATHER SERVICE JACKSON MS
700 AM CDT THU APR 26 2018

NOTE: "FAIR: INDICATES FEW OR NO CLOUDS BELOW 12,000 FEET WITH NO
SIGNIFICANT WEATHER AND/OR OBSTRUCTIONS TO VISIBILITY.

MSZ001>002-007>008-010>013-018>021-025>028-034>036-261300-
NORTHWEST MISSISSIPPI

CITY           SKY/WX    TMP DP  RH WIND       PRES   REMARKS
BATESVILLE       N/A    N/A N/A N/A MISG        N/A
CLARKSDALE     CLOUDY    54  54 100 NW10      29.84R FOG
CLEVELAND      CLOUDY    54  54 100 NW13G21   29.85R FOG
GREENWOOD      CLOUDY    57  55  93 W8        29.82R
6HR MIN TEMP:  57; 6HR MAX TEMP:  62; 6HR PCP:  0.69;

GREENVILLE     CLOUDY    56  52  86 NW10      29.85R
6HR MIN TEMP:  56; 6HR MAX TEMP:  59; 6HR PCP:  0.07;

OLIVE BRANCH   RAIN      50  50 100 NW14      29.81  FOG
OXFORD         DRIZZLE   54  54 100 SW9       29.79R
TUNICA         RAIN      52  52 100 N14       29.84S
WINONA         CLOUDY    56  56 100 W8        29.80R
$$

MSZ003>006-009-014>017-022>024-029>033-037>039-261300-
NORTHEAST MISSISSIPPI

CITY           SKY/WX    TMP DP  RH WIND       PRES   REMARKS
ABERDEEN         N/A     57  57 100 VRB5G12   29.80F
COLUMBUS AFB   MOCLDY    58  58 100 E10       29.78F
6HR MIN TEMP:  58; 6HR MAX TEMP:  61; 6HR PCP:  0.67;

CORINTH        LGT RAIN  55  54  94 E9        29.82S
GOLDN TRIANGLE CLOUDY    59  57  94 SE7       29.79S
STARKVILLE     CLOUDY    57  57 100 CALM      29.79R
TUPELO           N/A    N/A N/A N/A MISG      29.78F
$$

MSZ040-058-261300-
CENTRAL MISSISSIPPI

CITY           SKY/WX    TMP DP  RH WIND       PRES   REMARKS
JACKSON INTL   MOCLDY    56  54  93 W6        29.86R
6HR MIN TEMP:  56; 6HR MAX TEMP:  64; 6HR PCP:  0.46;

JACKSON HAWKNS MOCLDY    56  55  97 W13       29.88R
6HR MIN TEMP:  56; 6HR MAX TEMP:  64; 6HR PCP:  0.47;

MADISON        PTSUNNY   54  54 100 W5        29.87R
MERIDIAN KEY   CLOUDY    61  58  90 SW7       29.83S
6HR MIN TEMP:  58; 6HR MAX TEMP:  63; 6HR PCP:  0.48;

MERIDIAN NAS   HVY RAIN  60  58  92 SW7       29.82R FOG
6HR MIN TEMP:  59; 6HR MAX TEMP:  63; 6HR PCP:  0.74;

RAYMOND        CLOUDY    57  55  94 W10       29.88R
VICKSBURG VKS  CLOUDY    55  52  88 W12       29.92R
$$

MSZ059>079-261300-
SOUTH MISSISSIPPI

CITY           SKY/WX    TMP DP  RH WIND       PRES   REMARKS
COLUMBIA       CLOUDY    59  57  94 NW6       29.94R
HATTIESBURG    LGT RAIN  63  62  97 W9        29.88R
6HR MIN TEMP:  58; 6HR MAX TEMP:  64; 6HR PCP:  0.24;

MCCOMB         CLOUDY    58  54  86 NW10      29.91R
6HR MIN TEMP:  58; 6HR MAX TEMP:  67; 6HR PCP:  0.08;

NATCHEZ        CLOUDY    54  50  86 NW9       29.94R
6HR MIN TEMP:  54; 6HR MAX TEMP:  65; 6HR PCP:  0.09;

PINE BELT      LGT RAIN  59  58  96 NW12G17   29.88R FOG
6HR MIN TEMP:  58; 6HR MAX TEMP:  64; 6HR PCP:  0.13;

$$

MSZ080>082-261300-
COASTAL MISSISSIPPI

CITY           SKY/WX    TMP DP  RH WIND       PRES   REMARKS
BAY ST LOUIS   MOCLDY    64  63  94 NW7       29.87
BILOXI         MOCLDY    68  63  82 W7        29.86S
6HR MIN TEMP:  66; 6HR MAX TEMP:  70;

PASCAGOULA     CLOUDY    66  62  87 CALM      29.87S
6HR MIN TEMP:  56; 6HR MAX TEMP:  67;

GULFPORT       CLOUDY    68  63  84 W5        29.86S
6HR MIN TEMP:  60; 6HR MAX TEMP:  68;

$$

LAZ007>009-015>016-023>026-261300-
NORTHEAST LOUISIANA

CITY           SKY/WX    TMP DP  RH WIND       PRES   REMARKS
BASTROP        CLOUDY    53  53  98 W9        29.93R
TALLULAH/VBURG CLOUDY    56  54  93 W9        29.91R
6HR MIN TEMP:  55; 6HR MAX TEMP:  62; 6HR PCP:  0.25;

VIDALIA        CLOUDY    54  49  83 W9        29.94R
$$



USA.gov is the U.S. government's official web portal to all federal, state and local government web resources and services.